Location: Spring Creek
(38.2870°N, 100.2160°W)
Time: 23:41:04
(UTC+00:00)

Cosmos 2228 - Pass Details

Date: 08 May 2021
Orbit: 589 x 617 km, 82.5° (Epoch: 21 June)

Event Time Altitude Azimuth Distance (km) Brightness Sun altitude
Rises 10:07:37 0° 1° (N) 2,835 7.0 -15.8°
Reaches altitude 10° 10:09:57 10° 9° (N) 1,932 6.3 -15.5°
Maximum altitude 10:13:57 39° 79° (ENE) 904 4.4 -14.8°
Drops below altitude 10° 10:17:57 10° 148° (SSE) 1,932 5.6 -14.2°
Sets 10:20:16 0° 156° (SSE) 2,834 6.3 -13.8°
